El Centro, CA

4:45 PM PDT on July 20, 2017 (GMT -0700)
El Centro Naval Air Facility

Weather History for KNJK - April, 2013

Change the Weather History Date:

Friday, April 26, 2013

  Actual Average Record
Temperature  
Mean Temperature 74 °F -  
Max Temperature 91 °F 85 °F 100 °F (2004)
Min Temperature 57 °F 59 °F 55 °F (2015)
Cooling Degree Days 8    
Growing Degree Days 24 (Base 50)    
Moisture  
Dew Point 45 °F    
Average Humidity 40    
Maximum Humidity 72    
Minimum Humidity 15    
Precipitation  
Precipitation 0.00 in - - ()
Sea Level Pressure  
Sea Level Pressure 30.06 in    
Wind  
Wind Speed 5 mph (SE)    
Max Wind Speed 12 mph    
Max Gust Speed -    
Visibility 10 miles    
Events      
Averages and records for this station are not official NWS values.
T = Trace of Precipitation, MM = Missing Value Source: NWS Daily Summary

Daily Weather History Graph

Daily Weather History Graph

Search for Another Location

Airport or City:

Trip Planner

Search our weather history database for the weather conditions in past years. The results will help you decide how hot, cold, wet, or windy it might be!

Date:

Astronomy

Apr. 26, 2013 Rise Set
Actual Time 6:00 AM PDT 7:21 PM PDT
Civil Twilight 5:34 AM PDT 7:47 PM PDT
Nautical Twilight 5:03 AM PDT 8:18 PM PDT
Astronomical Twilight 4:31 AM PDT 8:50 PM PDT
Moon 8:44 PM PDT (4/26) 6:34 AM PDT (4/26)
Length of Visible Light 14h 12m
Length of Day
13h 20m
Full, 99% of the Moon is Illuminated
Apr 26
Full
May 2
Last Quarter
May 9
New
May 17
First Quarter
May 24
Full

Hourly Weather History & Observations

Time (PDT) Temp. Dew Point Humidity Pressure Visibility Wind Dir Wind Speed Gust Speed Precip Events Conditions
12:56 AM 66.9 °F 46.0 °F 47% 30.00 in 10.0 mi WSW 11.5 mph - N/A   Clear
1:56 AM 62.1 °F 45.0 °F 53% 30.01 in 10.0 mi SSE 6.9 mph - N/A   Clear
2:56 AM 59.0 °F 46.9 °F 64% 30.02 in 10.0 mi ESE 4.6 mph - N/A   Clear
3:56 AM 57.9 °F 46.0 °F 65% 30.03 in 10.0 mi East 4.6 mph - N/A   Clear
4:56 AM 60.1 °F 50.0 °F 69% 30.04 in 10.0 mi SE 6.9 mph - N/A   Clear
5:56 AM 57.0 °F 48.0 °F 72% 30.06 in 10.0 mi SSE 5.8 mph - N/A   Clear
6:56 AM 59.0 °F 48.0 °F 67% 30.09 in 10.0 mi Calm Calm - N/A   Clear
7:56 AM 63.0 °F 51.1 °F 65% 30.11 in 10.0 mi Calm Calm - N/A   Clear
8:56 AM 69.1 °F 53.1 °F 57% 30.12 in 10.0 mi Calm Calm - N/A   Clear
9:56 AM 75.0 °F 51.1 °F 43% 30.14 in 10.0 mi WNW 3.5 mph - N/A   Clear
10:56 AM 78.1 °F 52.0 °F 40% 30.13 in 10.0 mi Calm Calm - N/A   Clear
11:56 AM 82.0 °F 46.9 °F 29% 30.12 in 10.0 mi ESE 4.6 mph - N/A   Clear
12:56 PM 84.0 °F 43.0 °F 24% 30.10 in 10.0 mi ESE 5.8 mph - N/A   Clear
1:56 PM 86.0 °F 42.1 °F 21% 30.08 in 10.0 mi SE 5.8 mph - N/A   Clear
2:56 PM 88.0 °F 39.0 °F 18% 30.06 in 10.0 mi Calm Calm - N/A   Clear
3:56 PM 90.0 °F 36.0 °F 15% 30.03 in 10.0 mi Calm Calm - N/A   Clear
4:56 PM 90.0 °F 39.0 °F 17% 30.01 in 10.0 mi SE 4.6 mph - N/A   Clear
5:56 PM 89.1 °F 41.0 °F 19% 30.00 in 10.0 mi ESE 3.5 mph - N/A   Clear
6:56 PM 87.1 °F 41.0 °F 20% 30.00 in 10.0 mi SE 3.5 mph - N/A   Clear
7:56 PM 82.0 °F 41.0 °F 23% 30.01 in 10.0 mi Calm Calm - N/A   Clear
8:56 PM 78.1 °F 42.1 °F 28% 30.03 in 10.0 mi Calm Calm - N/A   Clear
9:56 PM 73.0 °F 42.1 °F 33% 30.04 in 10.0 mi Calm Calm - N/A   Clear
10:56 PM 73.9 °F 44.1 °F 34% 30.05 in 10.0 mi WSW 5.8 mph - N/A   Clear
11:56 PM 72.0 °F 42.1 °F 34% 30.05 in 10.0 mi SW 5.8 mph - N/A   Clear